Regional Weather Roundup
Issued by NWS Upton, NY

Current Version | Previous Version | Text Only | Print | Product List | Glossary On
Versions: 1 2 3 4 5 6 7 8 9 10 11 12 13 14 15 16 17 18 19 20 21 22 23 24 25 26 27 28 29 30 31 32 33 34 35 36 37 38 39 40 41 42 43 44 45 46 47 48 49 50
000
ASUS41 KOKX 061608
RWROKX

REGIONAL WEATHER ROUNDUP
NATIONAL WEATHER SERVICE NEW YORK NY
1200 PM EDT WED MAY 06 2015

NOTE: "FAIR" INDICATES FEW OR NO CLOUDS BELOW 12,000 FEET WITH NO
SIGNIFICANT WEATHER AND/OR OBSTRUCTIONS TO VISIBILITY.

NYZ071-072-176-178-NJZ106-104-061700-
NEW YORK CITY METRO AREA


CITY           SKY/WX    TMP DP  RH WIND       PRES   REMARKS
CENTRAL PARK   CLOUDY    66  41  40 NE7G17    30.32S
LAGUARDIA APRT CLOUDY    62  41  46 NE8       30.30R
KENNEDY INTL   CLOUDY    68  39  34 NE10      30.29F
NEWARK/LIBERTY CLOUDY    68  43  40 N10       30.29S
BRNX BOT. GARD   N/A     63  43  48 N3        30.32S
TETERBORO      LGT RAIN  66  42  41 NE8       30.29S
$$

NYZ177-179-078>081-061700-
LONG ISLAND NEW YORK

CITY           SKY/WX    TMP DP  RH WIND       PRES   REMARKS
FARMINGDALE    CLOUDY    63  42  46 NE6       30.29S
ISLIP          CLOUDY    63  39  41 NE9       30.27F
SHIRLEY        CLOUDY    62  42  47 N6        30.29F
WESTHAMPTON    CLOUDY    63  42  46 NE7       30.29F
MONTAUK POINT    N/A     57  46  66 E7        30.30S
$$

NYZ052-065-067-061700-
HUDSON VALLEY

CITY           SKY/WX    TMP DP  RH WIND       PRES   REMARKS
WHITE PLAINS   CLOUDY    63  42  46 VRB3      30.29F
NEWBURGH       CLOUDY    63  43  48 CALM      30.32F
MONTGOMERY     CLOUDY    63  43  48 N3        30.31S
POUGHKEEPSIE   CLOUDY    64  47  53 N3        30.30F
ALBANY         MOSUNNY   72  29  20 CALM      30.30F
$$

NJZ001-105-106-008-010-013-015-019>022-104-061700-
NEW JERSEY

CITY           SKY/WX    TMP DP  RH WIND       PRES   REMARKS
NEWARK/LIBERTY CLOUDY    68  43  40 N10       30.29S
TETERBORO      LGT RAIN  66  42  41 NE8       30.29S
CALDWELL       CLOUDY    64  41  42 NE6       30.31S
MORRISTOWN     CLOUDY    64  45  48 NE7       30.31S
SOMERVILLE     CLOUDY    67  43  41 VRB6      30.28S
SUSSEX         CLOUDY    61  48  62 CALM      30.32F
ANDOVER          N/A     59  51  75 CALM      30.32S
TRENTON        MOSUNNY   71  39  31 E12G21    30.27F
MILLVILLE      MOSUNNY   75  50  41 E8G18     30.23F
ATLANTIC CITY  PTSUNNY   69  50  50 NE20G28   30.25F
WRIGHTSTOWN    MOSUNNY   70  43  37 E12       30.24S
TOMS RIVER     MOSUNNY   70  43  37 E17G25    30.28S
BELMAR         PTSUNNY   68  39  34 NE15G23   30.28S
$$

PAZ047>061-062-071-061700-
EASTERN PENNSYLVANIA

CITY           SKY/WX    TMP DP  RH WIND       PRES   REMARKS
PHILADELPHIA   PTSUNNY   70  46  42 E13       30.27F
ALLENTOWN      CLOUDY    61  49  64 NE10      30.31S
SCRANTON       CLOUDY    57  50  77 VRB3      30.31S
$$

CTZ002-004>006-009-010-012-RIZ004-006-007-MAZ004-011-015-061700-
SOUTHERN NEW ENGLAND
 IN CT

CITY           SKY/WX    TMP DP  RH WIND       PRES   REMARKS
BRADLEY INTL   CLOUDY    71  31  22 E7        30.29F
HARTFORD       CLOUDY    65  38  36 VRB5      30.30F
DANBURY        CLOUDY    62  38  40 E5        30.31F
WTRBRY/OXFORD  CLOUDY    63  34  34 E9        30.32F
BRIDGEPORT     CLOUDY    66  38  35 NE8       30.29F
MERIDEN        CLOUDY    67  36  31 VRB3      30.30F
NEW HAVEN      CLOUDY    66  39  37 NE9       30.28F
CHESTER        FAIR      66  34  30 E5        30.30F
GROTON         CLOUDY    67  36  31 E9        30.28F
WILLIMANTIC    CLOUDY    69  31  24 NE8       30.30F

 IN RI

CITY           SKY/WX    TMP DP  RH WIND       PRES   REMARKS
PROVIDENCE     CLOUDY    66  37  34 E9        30.30F
BLOCK ISLAND   CLOUDY    55  46  71 E13       30.29F
WESTERLY       CLOUDY    67  38  34 E10       30.29F

 IN MA

CITY           SKY/WX    TMP DP  RH WIND       PRES   REMARKS
BOSTON         PTSUNNY   63  38  39 SE8       30.29F
WORCESTER      PTSUNNY   67  29  24 NE6       30.30F
WESTFIELD      CLOUDY    71  29  21 VRB6G17   30.29
PROVINCETOWN   MOSUNNY   64  45  48 NE6       30.30F
NANTUCKET      CLOUDY    60  35  39 NE13      30.28F
$$

ANZ330-335-338-340-345-350-353-355-061700-
COASTAL MARINE OBSERVATIONS


STATION/POSITION TIME  SKY/WX   TEMP    WIND        PRES    VSBY  WAVE
                                AIR SEA DIR/SP/G                  HT/PER
                 (UTC)          (F)     (DEG/KT/KT) (MB)    (MI)  (FT/S)
NY HARB ENTRANCE 1550            58 53   30/ 10/ 12 1024.9          3/ 6
4S FIRE IS       1503               51                N/A           3/ 6
20S FIRE ISLAND  1550            51 49   30/  8/  8 1024.9          3/ 6
GREAT SOUTH BAY  1500            63 60   40/ 12/ 16   N/A
23SW MTP         1550            51 47   20/ 10/ 10 1025.2          3/ 7
HUDSON CANYON    NOT AVBL
KINGS POINT      1500            63 47   30/  6/  9 1025.4
EASTERN LI SOUND 1500            54      50/  8/  8   N/A
ROBBINS REEF     1500            64      50/ 17/ 20 1024.6
$$


>>>>>>>>>>>>>>>>>>>>>>>>>>>> KEY <<<<<<<<<<<<<<<<<<<<<<<<<<<
>                                                          <
>     SKY/WX - SKY CONDITION/PRESENT WEATHER               <
>     TMP    - TEMPERATURE IN FAHRENHEIT                   <
>     DP     - DEWPOINT IN FAHRENHEIT                      <
>     RH     - RELATIVE HUMIDITY IN PERCENT                <
>     WIND   - DIRECTION AND SPEED IN MPH                  <
>     PRES   - MEAN SEA LEVEL PRESSURE IN INCHES OF HG     <
>     WCI    - WIND CHILL INDEX                            <
>     VSB    - VISIBILITY IN MILES                         <
>     HX     - HEAT INDEX                                  <
>     TC     - TEMPERATURE IN CELSIUS                      <
>     VRB    - VARIABLE WIND DIRECTION                     <
>                                                          <
>>>>>>>>>>>>>>>>>>>>>>>>>>>> KEY <<<<<<<<<<<<<<<<<<<<<<<<<<<





USA.gov is the U.S. government's official web portal to all federal, state and local government web resources and services.